Regional Weather Roundup
Issued by NWS Albany, NY

Home | Current Version | Previous Version | Text Only | Print | Product List | Glossary On
Versions: 1 2 3 4 5 6 7 8 9 10 11 12 13 14 15 16 17 18 19 20 21 22 23 24 25 26 27 28 29 30 31 32 33 34 35 36 37 38 39 40 41 42 43 44 45 46 47 48 49 50
000
ASUS41 KALY 170510
RWRALY

NEW YORK STATE HOURLY WEATHER ROUNDUP
NATIONAL WEATHER SERVICE ALBANY NY
100 AM EDT WED SEP 17 2014

NOTE: "FAIR" INDICATES FEW OR NO CLOUDS BELOW 12,000 FEET WITH NO
SIGNIFICANT WEATHER AND/OR NO OBSTRUCTIONS TO VISIBILITY.

NYZ032-033-038>043-046>054-057>066-NYZ062>081-170600-
EAST


CITY           SKY/WX    TMP DP  RH WIND       PRES   REMARKS
ALBANY         CLEAR     51  44  77 W5        30.03S
GLENS FALLS    CLEAR     44  42  93 CALM      30.01F
POUGHKEEPSIE   PTCLDY    51  49  92 CALM      30.04R FOG
NEWBURGH       CLEAR     50  50 100 CALM      30.06R
MONTGOMERY     CLEAR     47  45  93 CALM      30.05R
WHITE PLAINS   CLEAR     53  49  86 NW6       30.02S
ISLIP          PTCLDY    56  53  90 CALM      30.00S
NEW YORK CITY  PTCLDY    64  51  62 N8        30.02S
CENTRAL PARK   CLEAR     62  49  62 N3        30.05S
$$

NYZ005>009-017-018-044>046-055-056-170600-
CENTRAL


CITY           SKY/WX    TMP DP  RH WIND       PRES   REMARKS
FULTON         CLEAR     48  44  86 CALM      30.03S
SYRACUSE       CLEAR     50  45  83 CALM      30.03F
ROME           CLEAR     45  43  93 CALM      30.05S
ELMIRA         CLEAR     41  41 100 W3        30.07S
BINGHAMTON     CLEAR     50  43  77 CALM      30.05F
MONTICELLO     CLEAR     45  43  93 CALM      30.07S
$$

NYZ026>034-041>043-170600-
NORTH


CITY           SKY/WX    TMP DP  RH WIND       PRES   REMARKS
WATERTOWN      CLEAR     45  39  79 CALM      30.02S
FORT DRUM      NOT AVBL
MASSENA        CLEAR     47  46  97 SW6       29.99S
SARANAC LAKE   FOG       39  39 100 CALM      29.98F VSB 1/4
PLATTSBURGH    CLEAR     47  46  97 SW5       29.97S
$$

NYZ001>004-010>016-019>021-170600-
WEST


CITY           SKY/WX    TMP DP  RH WIND       PRES   REMARKS
NIAGARA FALLS  CLEAR     50  44  80 CALM      30.04F
BUFFALO        PTCLDY    54  45  71 CALM      30.05S
DUNKIRK        CLOUDY    53  49  86 S5        30.07S
JAMESTOWN      CLEAR     46  43  87 S5        30.07F
WELLSVILLE     CLOUDY    45  41  86 SW3       30.08F
ROCHESTER      CLEAR     47  44  90 CALM      30.05S
PENN YAN       CLEAR     50  48  93 SW8       30.06S
$$

             KEY
       WCI = WIND CHILL INDEX
       VSB = VISIBILITY
       HX  = HEAT INDEX
$$



USA.gov is the U.S. government's official web portal to all federal, state and local government web resources and services.